This demonstration page uses our WeatherBlox Daily Observations layout. Learn more.

Hourly Observations for September 15, 2019

Temp ( °F °C ) Dew Point ( °F °C ) Humidity (%) Winds ( mph kmh ) Pressure ( in mb ) Visibility ( mi km ) Precip ( " mm )
12:15 am 00:15 Clear 65 18.6 64 17.8 95 95 Calm 29.95 1014 10 16.0934 0 0
12:35 am 00:35 Clear 64 17.8 62 16.9 95 95 Calm 29.95 1014 10 16.0934 0 0
12:55 am 00:55 Clear 63 17.3 62 16.9 98 98 Calm 29.96 1015 10 16.0934 0 0
1:15 am 01:15 Clear 66 18.7 63 17.4 92 92 Calm 29.96 1014 10 16.0934 0 0
1:35 am 01:35 Clear 64 17.9 62 16.7 93 93 S 3 6 29.95 1014 10 16.0934 0 0
1:55 am 01:55 Clear 65 18.6 63 17.1 91 91 SW 3 6 29.96 1015 10 16.0934 0 0
2:15 am 02:15 Clear 65 18.4 63 17.3 93 93 SW 5 7 29.96 1015 10 16.0934 0 0
2:35 am 02:35 Clear 67 19.2 64 17.5 90 90 Calm 29.96 1015 10 16.0934 0 0
2:55 am 02:55 Clear 65 18.6 63 17.2 92 92 Calm 29.95 1014 10 16.0934 0 0
3:15 am 03:15 Clear 65 18.3 62 16.8 91 91 SSW 3 6 29.95 1014 10 16.0934 0 0
3:35 am 03:35 Clear 65 18.6 63 17.2 92 92 NW 3 6 29.96 1015 10 16.0934 0 0
3:55 am 03:55 Clear 64 17.9 62 16.9 94 94 WNW 3 6 29.95 1014 10 16.0934 0 0
4:15 am 04:15 Clear 63 17 62 16.5 97 97 Calm 29.97 1015 10 16.0934 0 0
4:35 am 04:35 Clear 62 16.9 61 16.2 96 96 Calm 29.98 1015 10 16.0934 0 0
4:55 am 04:55 Clear 63 17 61 16.1 94 94 Calm 29.97 1015 10 16.0934 0 0
5:15 am 05:15 Clear 62 16.6 60 15.8 95 95 Calm 29.97 1015 10 16.0934 0 0
5:35 am 05:35 Clear 61 16.3 61 15.9 98 98 Calm 29.97 1015 10 16.0934 0 0
5:55 am 05:55 Clear 60 15.4 59 15 97 97 NNW 5 7 29.98 1015 10 16.0934 0 0
6:15 am 06:15 Clear 60 15.4 58 14.6 95 95 Calm 29.98 1015 10 16.0934 0 0
6:35 am 06:35 Clear 59 15 58 14.5 97 97 Calm 29.98 1015 10 16.0934 0 0
6:55 am 06:55 Clear 62 16.4 60 15.3 93 93 SW 3 6 29.98 1015 10 16.0934 0 0
7:15 am 07:15 Clear 60 15.3 58 14.5 95 95 Calm 29.97 1015 10 16.0934 0 0
7:35 am 07:35 Sunny 58 14.3 57 14.1 99 99 NW 3 6 30 1016 10 16.0934 0 0
7:55 am 07:55 Sunny 58 14.6 58 14.3 98 98 Calm 30 1016 10 16.0934 0 0
8:15 am 08:15 Sunny 62 16.4 59 15 91 91 Calm 29.99 1015 10 16.0934 0 0
8:35 am 08:35 Sunny 63 17.1 61 16 93 93 Calm 29.99 1016 10 16.0934 0 0
8:55 am 08:55 Sunny 65 18.6 62 16.4 87 87 Calm 29.98 1015 10 16.0934 0 0
9:15 am 09:15 Sunny 67 19.7 60 15.4 76 76 Calm 29.97 1015 10 16.0934 0 0
9:35 am 09:35 Sunny 70 21.1 62 16.7 76 76 Calm 29.96 1014 10 16.0934 0 0
9:55 am 09:55 Sunny 72 22.2 64 17.5 75 75 Calm 29.95 1014 10 16.0934 0 0
10:15 am 10:15 Sunny 73 23 61 16.2 66 66 Calm 29.94 1014 10 16.0934 0 0
10:35 am 10:35 Sunny 75 23.9 62 16.6 64 64 Calm 29.95 1014 10 16.0934 0 0
10:55 am 10:55 Sunny 76 24.7 65 18.5 69 69 ESE 3 6 29.94 1014 10 16.0934 0 0
11:15 am 11:15 Sunny 77 25.2 67 19.5 71 71 SSE 7 11 29.93 1014 10 16.0934 0 0
11:35 am 11:35 Sunny 78 25.7 70 20.9 75 75 SSE 5 7 29.93 1014 10 16.0934 0 0
11:55 am 11:55 Sunny 80 26.5 69 20.6 70 70 SSE 6 9 29.92 1013 10 16.0934 0 0
12:15 pm 12:15 Sunny 81 27.3 68 20.1 65 65 ESE 7 11 29.92 1013 10 16.0934 0 0
12:35 pm 12:35 Sunny 83 28.1 68 19.8 61 61 ESE 8 13 29.9 1013 10 16.0934 0 0
12:55 pm 12:55 Sunny 84 28.9 66 18.9 55 55 ESE 9 15 29.9 1012 10 16.0934 0 0
1:15 pm 13:15 Sunny 85 29.6 64 17.6 48 48 SE 10 17 29.88 1012 10 16.0934 0 0
1:35 pm 13:35 Sunny 86 30.1 65 18.3 49 49 SSE 9 15 29.88 1012 10 16.0934 0 0
1:55 pm 13:55 Sunny 87 30.5 67 19.2 51 51 SE 10 17 29.87 1012 10 16.0934 0 0
2:15 pm 14:15 Sunny 88 30.9 65 18.1 46 46 SE 9 15 29.85 1011 10 16.0934 0 0
2:35 pm 14:35 Sunny 88 31 63 17.1 43 43 SE 10 17 29.85 1011 10 16.0934 0 0
2:55 pm 14:55 Sunny 88 31.3 64 17.8 44 44 ESE 10 17 29.84 1010 10 16.0934 0 0
3:15 pm 15:15 Sunny 89 31.7 67 19.3 48 48 SSE 8 13 29.83 1010 10 16.0934 0 0
3:35 pm 15:35 Sunny 90 32 66 18.9 46 46 SSE 8 13 29.82 1010 10 16.0934 0 0
3:55 pm 15:55 Sunny 90 32.1 65 18.3 44 44 SSE 8 13 29.82 1010 10 16.0934 0 0
4:15 pm 16:15 Sunny 90 32.3 65 18.5 44 44 S 7 11 29.82 1010 10 16.0934 0 0
4:35 pm 16:35 Sunny 90 32.1 66 18.9 46 46 SSE 7 11 29.81 1010 10 16.0934 0 0
4:55 pm 16:55 Sunny 89 31.9 66 19 46 46 SSE 7 11 29.81 1010 10 16.0934 0 0
5:15 pm 17:15 Sunny 90 32.1 67 19.5 47 47 SSE 3 6 29.8 1009 10 16.0934 0 0
5:35 pm 17:35 Sunny 90 32 68 20.2 50 50 SSE 7 11 29.8 1009 10 16.0934 0 0
5:55 pm 17:55 Sunny 88 31.3 69 20.4 52 52 SE 6 9 29.8 1009 10 16.0934 0 0
6:15 pm 18:15 Sunny 87 30.5 70 21.1 57 57 SE 6 9 29.8 1009 10 16.0934 0 0
6:35 pm 18:35 Sunny 86 30.1 70 21.2 59 59 SE 6 9 29.81 1009 10 16.0934 0 0
6:55 pm 18:55 Sunny 84 28.8 72 22.4 68 68 ESE 7 11 29.82 1010 10 16.0934 0 0
7:15 pm 19:15 Sunny 81 27.2 71 21.9 73 73 ESE 7 11 29.83 1010 10 16.0934 0 0
7:35 pm 19:35 Sunny 79 26.1 72 22.1 79 79 SE 6 9 29.84 1010 10 16.0934 0 0
7:55 pm 19:55 Clear 76 24.6 71 21.5 83 83 SE 6 9 29.85 1011 10 16.0934 0 0
8:15 pm 20:15 Clear 75 24.1 70 21 83 83 SE 6 9 29.85 1011 10 16.0934 0 0
8:35 pm 20:35 Clear 74 23.6 67 19.3 77 77 SSE 5 7 29.86 1011 10 16.0934 0 0
8:55 pm 20:55 Clear 73 22.6 65 18.4 77 77 SSE 5 7 29.88 1012 10 16.0934 0 0
9:15 pm 21:15 Clear 72 22 65 18.1 79 79 SSE 5 7 29.88 1012 10 16.0934 0 0
9:35 pm 21:35 Clear 71 21.8 64 17.5 77 77 SSE 5 7 29.88 1012 10 16.0934 0 0
9:55 pm 21:55 Clear 72 22 63 17.4 75 75 SSE 6 9 29.89 1012 10 16.0934 0 0
10:15 pm 22:15 Clear 71 21.7 63 17.3 76 76 SSE 6 9 29.9 1013 10 16.0934 0 0
10:35 pm 22:35 Clear 71 21.4 63 17.3 78 78 SSE 5 7 29.91 1013 10 16.0934 0 0
10:55 pm 22:55 Clear 69 20.8 63 17.2 80 80 SSE 5 7 29.91 1013 10 16.0934 0 0
11:15 pm 23:15 Clear 69 20.7 63 17.2 80 80 SSE 5 7 29.91 1013 10 16.0934 0 0
11:35 pm 23:35 Clear 69 20.5 63 17 80 80 S 6 9 29.91 1013 10 16.0934 0 0
11:55 pm 23:55 Clear 68 20.1 63 17 82 82 S 7 11 29.92 1013 10 16.0934 0 0

Powered by AerisWeather